Regional Weather Roundup
Issued by NWS

Home | Current Version | Previous Version | Graphics & Text | Print | Product List | Glossary On
Versions: 1 2 3 4 5 6 7 8 9 10 11 12 13 14 15 16 17 18 19 20 21 22 23 24 25 26 27 28 29 30 31 32 33 34 35 36 37 38 39 40 41 42 43 44 45 46 47 48 49 50
000
ASUS43 KDTX 291110
RWRMI
MICHIGAN HOURLY REGIONAL WEATHER ROUNDUP
NATIONAL WEATHER SERVICE DETROIT/PONTIAC MI
700 AM EDT TUE JUL 29 2014

NOTE: "FAIR" INDICATES FEW OR NO CLOUDS BELOW 12,000 FEET WITH NO
SIGNIFICANT WEATHER AND/OR OBSTRUCTION TO VISIBILITY.

MIZ047>049-052>055-059>063-066>070-074>076-081>083-291200-
SOUTHEAST LOWER MICHIGAN

CITY           SKY/WX    TMP DP  RH WIND       PRES   REMARKS
ADRIAN         CLEAR     47  45  93 CALM      30.02S
ALMA           MOCLDY    52  49  89 W3        29.99S
ANN ARBOR      CLEAR     47  44  90 SW5       30.00S
BAD AXE        CLOUDY    49  49  98 CALM      29.96S
DETROIT CITY   CLEAR     56  46  69 W6        29.99R
DETROIT        MOCLDY    52  47  83 W5        30.00S
FLINT          CLEAR     50  46  86 SW3       30.00R
GROSSE ILE     CLEAR     54  48  82 W5        29.99S
HILLSDALE        N/A     47  47 100 CALM      30.02S FOG
HOWELL         CLEAR     47  46  97 W3        30.00S

CITY           SKY/WX    TMP DP  RH WIND       PRES   REMARKS
JACKSON        CLEAR     48  46  93 CALM      30.01S
LAMBERTVILLE   CLEAR     50  46  87 CALM      30.02S
LANSING        CLOUDY    51  48  89 W3        30.01R
LAPEER         NOT AVBL
MASON          PTCLDY    48  47  97 CALM      30.01R
MONROE         CLEAR     48  46  93 CALM      29.99S
MT. CLEMENS    CLEAR     55  47  76 W7        29.97R
PONTIAC        PTCLDY    52  47  83 W6        29.99R
PORT HOPE        N/A     54  51  90 SW6       29.93S
PORT HURON     CLEAR     48  48 100 CALM      29.98R
TRI CITIES     CLOUDY    52  49  89 SW8       29.98S
YPSILANTI      CLEAR     54  47  77 W6        30.00S
$$
MIZ043>046-050>051-056>058-064>065-071>073-077>080-291200-
SOUTHWEST LOWER MICHIGAN

CITY           SKY/WX    TMP DP  RH WIND       PRES   REMARKS
BATTLE CREEK   PTCLDY    51  48  89 SW3       30.02S
BENTON HARBOR  MOCLDY    47  46  97 CALM      30.02S
BIG RAPIDS     CLOUDY    52  52 100 S6        29.97F
COLDWATER      CLEAR     48  47  97 CALM      30.03S
HOLLAND        CLOUDY    54  51  90 CALM      30.01S
GRAND RAPIDS   CLOUDY    55  51  86 W3        30.01S
KALAMAZOO      PTCLDY    50  46  86 S3        30.02F
MARSHALL       CLEAR     47  46  98 CALM      30.02R
MUSKEGON       CLOUDY    57  53  86 SW5       30.00S
$$
MIZ016>042-291200-
NORTHERN LOWER MICHIGAN

CITY           SKY/WX    TMP DP  RH WIND       PRES   REMARKS
ALPENA         CLOUDY    55  53  93 SW3       29.91S
BEAVER ISLAND  CLOUDY    56  55  98 W6        29.95R
BELLAIRE       CLOUDY    55  51  87 CALM      29.95R
CADILLAC       CLOUDY    52  50  93 SW3       29.96F
CHARLEVOIX     CLOUDY    60  57  89 NW7       29.97R
FRANKFORT      PTSUNNY   52  49  89 CALM      29.97R
GAYLORD        CLOUDY    52  49  89 W7        29.94S
GRAYLING       PTCLDY    53  52  94 W6        29.96S
HARBOR SPRINGS CLOUDY    60  56  85 W3        29.93R
HOUGHTON LAKE  CLOUDY    56  50  80 W8        29.96S
MANISTEE       PTCLDY    48  45  87 CALM      29.98S
OSCODA         CLOUDY    56  51  81 SW6       29.93S
PELLSTON       CLOUDY    58  56  93 W7        29.93R
TRAVERSE CITY  CLOUDY    56  51  84 SW6       29.95R
$$
MIZ007>008-015-291200-
EASTERN UPPER MICHIGAN

CITY           SKY/WX    TMP DP  RH WIND       PRES   REMARKS
KINROSS        CLOUDY    52  52 100 NW6       29.91S VSB 1
MACKINAC ISLAN CLOUDY    55  55  99 NW8       29.91S
NEWBERRY       CLOUDY    53  52  98 W7        29.93R FOG
S. S. MARIE    CLOUDY    51  49  92 NW6       29.91R
$$
MIZ004>006-011>014-085-291200-
CENTRAL UPPER MICHIGAN

CITY           SKY/WX    TMP DP  RH WIND       PRES   REMARKS
MANISTIQUE     PTCLDY    53  53  97 N8        29.95R
ESCANABA       CLEAR     55  50  82 NW6       29.96S
MENOMINEE      PTCLDY    57  52  82 NW6       29.97S
SAWYER-GWINN   MOCLDY    54  50  87 NW7       29.97S
$$
MIZ001>003-009>011-084-291200-
WESTERN UPPER MICHIGAN

CITY           SKY/WX    TMP DP  RH WIND       PRES   REMARKS
IRON MOUNTAIN  PTCLDY    55  51  86 NW6       29.99R
COPPER HARBOR    N/A     59  53  80 N9        29.96S
$$

ABBREVIATIONS USED IN REMARKS
   TC - TEMPERATURE IN CELSIUS
  WCI - WIND CHILL INDEX
   HX - HEAT INDEX
  VSB - VISIBILITY



USA.gov is the U.S. government's official web portal to all federal, state and local government web resources and services.